FW8536 Weather Reports


Display with metric or nautical units.
time (UTC)temp
F
wind
direction
speed
MPH
gust
MPH
rain 1hr
in
rain 24hr
in
rain mn
in
humidity
%
barometer
mb
20260902155013 72 117 13.0 21.0 0.00 0.00 0.00 72 995.7
20260902154512 71 121 10.0 18.0 0.00 0.00 0.00 67 995.9
20260902154017 71 111 11.0 16.0 0.00 0.00 0.00 67 996.0
20260902153012 70 138 11.0 16.0 0.00 0.00 0.00 66 996.2
20260902152511 69 122 12.0 16.0 0.00 0.00 0.00 65 996.1
20260902152013 69 110 12.0 18.0 0.00 0.00 0.00 65 996.4
20260902151511 68 107 11.0 18.0 0.00 0.00 0.00 65 996.4
20260902151010 68 132 12.0 18.0 0.00 0.00 0.00 65 996.4
20260902150509 67 137 12.0 16.0 0.00 0.00 0.00 66 996.5
20260902150009 67 111 10.0 15.0 0.00 0.00 0.00 66 996.5
20260902145509 67 119 10.0 13.0 0.00 0.00 0.00 65 996.4
20260902145108 66 121 9.0 12.0 0.00 0.00 0.00 66 996.4
20260902144508 66 360 8.0 12.0 0.00 0.00 0.00 66 996.6
20260902144008 65 99 9.0 12.0 0.00 0.00 0.00 66 996.6
20260902143009 64 360 7.0 13.0 0.00 0.00 0.00 68 996.6
20260902142508 64 360 8.0 12.0 0.00 0.00 0.00 67 996.7
20260902142009 64 123 8.0 12.0 0.00 0.00 0.00 68 996.6
20260902141508 63 360 8.0 11.0 0.00 0.00 0.00 68 996.8
20260902141111 63 360 7.0 10.0 0.00 0.00 0.00 69 996.8
20260902140507 63 360 8.0 10.0 0.00 0.00 0.00 69 996.9
20260902140007 62 113 6.0 10.0 0.00 0.00 0.00 70 996.8
20260902135507 62 360 6.0 10.0 0.00 0.00 0.00 71 996.8
20260902135007 61 113 5.0 9.0 0.00 0.00 0.00 72 996.8
20260902134510 61 121 6.0 8.0 0.00 0.00 0.00 72 996.8
20260902134008 61 360 5.0 7.0 0.00 0.00 0.00 73 996.7
20260902133007 59 137 4.0 6.0 0.00 0.00 0.00 76 996.9
20260902132510 59 138 4.0 6.0 0.00 0.00 0.00 76 996.9
20260902132006 59 360 4.0 6.0 0.00 0.00 0.00 77 997.1
20260902131507 58 136 4.0 6.0 0.00 0.00 0.00 77 996.9
20260902131006 58 136 4.0 8.0 0.00 0.00 0.00 78 996.9
20260902130507 58 134 5.0 8.0 0.00 0.00 0.00 78 996.9
20260902130006 57 360 5.0 7.0 0.00 0.00 0.00 78 996.9
20260902125506 57 142 5.0 7.0 0.00 0.00 0.00 79 996.7
20260902125006 56 135 5.0 7.0 0.00 0.00 0.00 79 996.6
20260902124507 56 138 4.0 7.0 0.00 0.00 0.00 79 996.7
20260902124005 56 170 5.0 7.0 0.00 0.00 0.00 79 996.8
20260902123006 56 171 5.0 7.0 0.00 0.00 0.00 80 996.6
20260902122506 55 174 5.0 7.0 0.00 0.00 0.00 81 996.6
20260902122007 55 360 4.0 6.0 0.00 0.00 0.00 81 996.7
20260902121505 54 202 4.0 6.0 0.00 0.00 0.00 81 996.6
20260902121006 55 202 4.0 7.0 0.00 0.00 0.00 80 996.6
20260902120506 55 360 5.0 7.0 0.00 0.00 0.00 80 996.5
20260902120002 55 130 2.0 4.0 0.00 0.00 0.00 78 996.5
20260902115501 56 360 1.0 3.0 0.00 0.00 0.00 79 996.4
20260902115104 56 360 2.0 5.0 0.00 0.00 0.00 78 996.4
20260902114600 56 360 2.0 5.0 0.00 0.00 0.00 77 996.5
20260902114102 57 104 1.0 3.0 0.00 0.00 0.00 77 996.5
20260902113106 57 360 1.0 4.0 0.00 0.00 0.00 77 996.5
20260902112558 57 360 1.0 3.0 0.00 0.00 0.00 77 996.5
20260902112057 57 360 2.0 5.0 0.00 0.00 0.00 76 996.5
20260902111556 57 360 3.0 5.0 0.00 0.00 0.00 76 996.4
20260902111055 57 360 3.0 5.0 0.00 0.00 0.00 76 996.7
20260902110558 58 107 3.0 5.0 0.00 0.00 0.00 75 996.8
20260902110055 58 105 3.0 5.0 0.00 0.00 0.00 75 996.6
20260902105557 58 132 4.0 6.0 0.00 0.00 0.00 75 996.8
20260902105055 58 360 4.0 6.0 0.00 0.00 0.00 75 996.6
20260902104555 58 360 4.0 6.0 0.00 0.00 0.00 76 996.7
20260902104058 58 121 5.0 7.0 0.00 0.00 0.00 76 996.6
20260902103055 58 130 5.0 6.0 0.00 0.00 0.00 76 996.9
20260902102556 58 360 4.0 7.0 0.00 0.00 0.00 76 996.9
20260902102055 58 136 5.0 7.0 0.00 0.00 0.00 75 997.0
20260902101554 58 138 6.0 9.0 0.00 0.00 0.00 75 997.0
20260902101053 58 148 7.0 9.0 0.00 0.00 0.00 75 997.1
20260902100553 58 360 6.0 8.0 0.00 0.00 0.00 75 997.0
20260902100052 58 360 5.0 7.0 0.00 0.00 0.00 75 997.0
20260902095552 58 360 5.0 7.0 0.00 0.00 0.00 75 997.1
20260902095054 58 360 5.0 7.0 0.00 0.00 0.00 75 997.2
20260902094555 58 360 5.0 7.0 0.00 0.00 0.00 75 997.1
20260902094050 58 360 5.0 7.0 0.00 0.00 0.00 75 997.0
20260902093051 59 143 5.0 7.0 0.00 0.00 0.00 74 997.0
20260902092549 59 138 4.0 7.0 0.00 0.00 0.00 72 997.1
20260902092048 60 135 5.0 7.0 0.00 0.00 0.00 72 997.0
20260902091550 60 133 4.0 6.0 0.00 0.00 0.00 72 997.2
20260902091047 60 120 4.0 7.0 0.00 0.00 0.00 71 997.0
20260902090549 60 124 4.0 7.0 0.00 0.00 0.00 71 997.1
20260902090047 60 119 4.0 7.0 0.00 0.00 0.00 71 997.0
20260902085546 60 120 5.0 7.0 0.00 0.00 0.00 71 997.0
20260902085047 60 360 4.0 6.0 0.00 0.00 0.00 71 997.2
20260902084548 60 125 5.0 7.0 0.00 0.00 0.00 71 997.2
20260902084047 60 126 5.0 7.0 0.00 0.00 0.00 71 997.2
20260902083044 60 360 4.0 6.0 0.00 0.00 0.00 71 997.2
20260902082544 60 128 3.0 5.0 0.00 0.00 0.00 71 997.1
20260902082043 60 128 3.0 6.0 0.00 0.00 0.00 71 997.2
20260902081551 60 360 4.0 8.0 0.00 0.00 0.00 70 997.2
20260902081043 60 129 5.0 8.0 0.00 0.00 0.00 71 997.3
20260902080543 60 132 4.0 6.0 0.00 0.00 0.00 71 997.3
20260902080042 60 134 4.0 5.0 0.00 0.00 0.00 71 997.3
20260902075542 60 134 4.0 5.0 0.00 0.00 0.00 71 997.4
20260902075044 61 134 4.0 6.0 0.00 0.00 0.00 70 997.4
20260902074559 61 134 4.0 6.0 0.00 0.00 0.00 70 997.3
20260902074040 61 135 3.0 5.0 0.00 0.00 0.00 69 997.3
20260902073040 61 135 4.0 5.0 0.00 0.00 0.00 68 997.2
20260902072540 62 135 4.0 7.0 0.00 0.00 0.00 68 997.3
20260902072037 62 136 4.0 8.0 0.00 0.00 0.00 67 997.2
20260902071536 63 135 5.0 8.0 0.00 0.00 0.00 66 997.4
20260902071036 63 134 6.0 8.0 0.00 0.00 0.00 66 997.5
20260902070536 63 136 6.0 8.0 0.00 0.00 0.00 66 997.5
20260902070035 63 360 7.0 8.0 0.00 0.00 0.00 65 997.4
20260902065534 63 360 6.0 8.0 0.00 0.00 0.00 65 997.4
20260902065033 64 146 6.0 8.0 0.00 0.00 0.00 64 997.5
20260902064531 64 360 6.0 8.0 0.00 0.00 0.00 64 997.4
20260902064030 64 144 5.0 7.0 0.00 0.00 0.00 64 997.4
20260902063053 65 360 5.0 7.0 0.00 0.00 0.00 63 997.4
20260902062529 65 142 5.0 7.0 0.00 0.00 0.00 63 997.4
20260902062028 65 143 5.0 6.0 0.00 0.00 0.00 63 997.5
20260902061530 65 360 5.0 6.0 0.00 0.00 0.00 63 997.5
20260902061032 65 141 5.0 6.0 0.00 0.00 0.00 63 997.5
20260902060528 65 137 4.0 5.0 0.00 0.00 0.00 63 997.5
20260902060027 65 135 3.0 6.0 0.00 0.00 0.00 63 997.6
20260902055527 65 135 4.0 6.0 0.00 0.00 0.00 63 997.5
20260902055027 65 135 4.0 6.0 0.00 0.00 0.00 63 997.5
20260902054526 65 136 4.0 7.0 0.00 0.00 0.00 62 997.6
20260902054030 66 136 4.0 7.0 0.00 0.00 0.00 62 997.4
20260902053028 66 140 5.0 7.0 0.00 0.00 0.00 62 997.5
20260902052524 67 144 5.0 8.0 0.00 0.00 0.00 61 997.6
20260902052023 67 360 6.0 8.0 0.00 0.00 0.00 61 997.6
20260902051535 67 134 5.0 8.0 0.00 0.00 0.00 61 997.6
20260902051027 67 135 5.0 8.0 0.00 0.00 0.00 61 997.6
20260902050522 67 130 5.0 8.0 0.00 0.00 0.00 61 997.4
20260902050024 67 132 6.0 7.0 0.00 0.00 0.00 60 997.5
20260902045525 67 134 5.0 8.0 0.00 0.00 0.00 60 997.5
20260902045019 67 136 5.0 8.0 0.00 0.00 0.00 60 997.5
20260902044518 68 140 6.0 8.0 0.00 0.00 0.00 59 997.6
20260902044018 68 140 6.0 8.0 0.00 0.00 0.00 59 997.6
20260902043017 68 360 5.0 7.0 0.00 0.00 0.00 58 997.7
20260902042517 68 360 5.0 8.0 0.00 0.00 0.00 58 997.6
20260902042015 69 360 5.0 8.0 0.00 0.00 0.00 57 997.6
20260902041514 69 360 5.0 7.0 0.00 0.00 0.00 57 997.7
20260902041013 69 123 6.0 8.0 0.00 0.00 0.00 56 997.6
20260902040514 69 121 6.0 8.0 0.00 0.00 0.00 56 997.6
20260902040020 69 128 6.0 10.0 0.00 0.00 0.00 56 997.6
20260902035513 69 125 7.0 10.0 0.00 0.00 0.00 56 997.6
20260902035015 69 360 6.0 9.0 0.00 0.00 0.00 56 997.5
20260902034514 69 128 6.0 7.0 0.00 0.00 0.00 57 997.5
20260902034016 69 360 4.0 6.0 0.00 0.00 0.00 57 997.4
20260902033012 69 360 4.0 6.0 0.00 0.00 0.00 57 997.4
20260902032512 70 360 5.0 7.0 0.00 0.00 0.00 56 997.3
20260902032010 70 360 5.0 7.0 0.00 0.00 0.00 55 997.3
20260902031509 70 108 5.0 7.0 0.00 0.00 0.00 55 997.3
20260902031008 70 360 4.0 6.0 0.00 0.00 0.00 54 997.2
20260902030508 71 104 5.0 6.0 0.00 0.00 0.00 54 997.2
20260902030008 70 104 4.0 6.0 0.00 0.00 0.00 53 997.0
20260902025508 70 360 4.0 6.0 0.00 0.00 0.00 53 997.1
20260902025006 70 100 4.0 6.0 0.00 0.00 0.00 53 997.0
20260902024507 70 100 4.0 6.0 0.00 0.00 0.00 53 997.1
20260902024005 71 360 4.0 7.0 0.00 0.00 0.00 52 997.1
20260902023006 71 360 5.0 8.0 0.00 0.00 0.00 51 996.9
20260902022505 72 107 6.0 9.0 0.00 0.00 0.00 51 996.9
20260902022005 72 360 6.0 9.0 0.00 0.00 0.00 50 996.8
20260902021507 72 99 6.0 7.0 0.00 0.00 0.00 50 996.8
20260902021007 72 360 6.0 7.0 0.00 0.00 0.00 50 996.8
20260902020501 72 92 5.0 7.0 0.00 0.00 0.00 50 996.7
20260902020001 72 92 5.0 7.0 0.00 0.00 0.00 50 996.8
20260902015501 73 98 5.0 7.0 0.00 0.00 0.00 50 996.7
20260902015100 73 360 5.0 7.0 0.00 0.00 0.00 49 996.6
20260902014558 74 360 5.0 7.0 0.00 0.00 0.00 48 996.7
20260902014058 75 360 5.0 8.0 0.00 0.00 0.00 47 996.8
20260902013059 75 105 7.0 10.0 0.00 0.00 0.00 46 996.8
20260902012554 76 360 7.0 10.0 0.00 0.00 0.00 46 996.6
20260902012053 76 121 7.0 11.0 0.00 0.00 0.00 46 996.7
20260902011554 76 360 7.0 11.0 0.00 0.00 0.00 46 996.7
20260902011051 77 112 8.0 11.0 0.00 0.00 0.00 45 996.8
20260902010549 77 113 8.0 13.0 0.00 0.00 0.00 45 996.8
20260902010053 78 109 9.0 16.0 0.00 0.00 0.00 44 996.8
20260902005548 78 360 9.0 13.0 0.00 0.00 0.00 44 996.8
20260902005050 78 360 10.0 13.0 0.00 0.00 0.00 44 996.7
20260902004554 78 360 7.0 11.0 0.00 0.00 0.00 44 996.6
20260902004047 79 110 8.0 15.0 0.00 0.00 0.00 44 996.6
20260902003121 79 360 9.0 13.0 0.00 0.00 0.00 40 996.6
20260902002543 79 360 8.0 11.0 0.00 0.00 0.00 38 996.7
20260902002043 79 360 8.0 11.0 0.00 0.00 0.00 37 996.6
20260902001544 79 360 7.0 12.0 0.00 0.00 0.00 37 996.6
20260902001045 80 360 9.0 13.0 0.00 0.00 0.00 36 996.6
20260902000541 80 86 9.0 14.0 0.00 0.00 0.00 35 996.6
20260902000041 80 92 9.0 13.0 0.00 0.00 0.00 35 996.7
20260901235541 80 86 9.0 16.0 0.00 0.00 0.00 35 996.8
20260901235040 80 76 10.0 18.0 0.00 0.00 0.00 35 996.7
20260901234539 81 77 11.0 18.0 0.00 0.00 0.00 35 996.7
20260901234039 81 80 10.0 15.0 0.00 0.00 0.00 34 996.9
20260901233039 81 360 11.0 15.0 0.00 0.00 0.00 34 996.8
20260901232538 81 88 12.0 18.0 0.00 0.00 0.00 34 996.9
20260901232038 81 84 11.0 19.0 0.00 0.00 0.00 34 996.9
20260901231544 82 87 14.0 19.0 0.00 0.00 0.00 33 997.0
20260901231037 82 71 12.0 19.0 0.00 0.00 0.00 33 997.0
20260901230538 82 92 13.0 19.0 0.00 0.00 0.00 33 997.1
20260901230036 82 80 13.0 18.0 0.00 0.00 0.00 33 997.2
20260901225536 82 90 10.0 19.0 0.00 0.00 0.00 33 997.2
20260901225035 82 91 13.0 19.0 0.00 0.00 0.00 33 997.2
20260901224535 82 95 13.0 18.0 0.00 0.00 0.00 33 997.2
20260901224035 82 93 12.0 16.0 0.00 0.00 0.00 33 997.3
20260901223033 82 111 9.0 15.0 0.00 0.00 0.00 33 997.3
20260901222536 82 360 9.0 16.0 0.00 0.00 0.00 33 997.5
20260901222036 81 75 11.0 16.0 0.00 0.00 0.00 33 997.5
20260901221538 82 360 9.0 13.0 0.00 0.00 0.00 33 997.6
20260901221031 82 101 10.0 14.0 0.00 0.00 0.00 33 997.6
20260901220530 81 94 8.0 14.0 0.00 0.00 0.00 32 997.8
20260901220038 81 105 10.0 15.0 0.00 0.00 0.00 32 997.7
20260901215530 82 84 11.0 18.0 0.00 0.00 0.00 32 997.7
20260901215030 81 360 12.0 18.0 0.00 0.00 0.00 32 997.8
20260901214529 82 360 9.0 16.0 0.00 0.00 0.00 31 997.7
20260901214034 82 98 12.0 16.0 0.00 0.00 0.00 31 997.8
20260901213028 82 96 13.0 19.0 0.00 0.00 0.00 31 998.0
20260901212529 82 360 7.0 13.0 0.00 0.00 0.00 31 998.0
20260901212030 82 107 8.0 19.0 0.00 0.00 0.00 31 998.1
20260901211528 83 360 13.0 19.0 0.00 0.00 0.00 30 998.1
20260901211028 83 101 14.0 19.0 0.00 0.00 0.00 31 998.1
20260901210526 83 360 13.0 19.0 0.00 0.00 0.00 31 998.0
20260901210026 82 82 9.0 18.0 0.00 0.00 0.00 32 998.1
20260901205525 82 76 10.0 14.0 0.00 0.00 0.00 32 998.2
20260901205028 82 360 8.0 13.0 0.00 0.00 0.00 32 998.2
20260901204522 81 92 9.0 13.0 0.00 0.00 0.00 33 998.4
20260901204021 81 360 8.0 12.0 0.00 0.00 0.00 33 998.3
20260901203020 80 360 7.0 14.0 0.00 0.00 0.00 33 998.6
20260901202519 80 360 5.0 13.0 0.00 0.00 0.00 34 998.6
20260901202019 80 360 8.0 16.0 0.00 0.00 0.00 32 998.7
20260901201518 80 360 9.0 16.0 0.00 0.00 0.00 33 998.7
20260901201019 80 96 9.0 16.0 0.00 0.00 0.00 33 998.7
20260901200517 80 360 9.0 16.0 0.00 0.00 0.00 34 998.9
20260901200020 80 122 11.0 16.0 0.00 0.00 0.00 34 999.0
20260901195518 80 119 8.0 13.0 0.00 0.00 0.00 34 999.2
20260901195020 80 360 6.0 13.0 0.00 0.00 0.00 34 999.1
20260901194516 80 360 8.0 13.0 0.00 0.00 0.00 34 999.3
20260901194018 79 92 7.0 12.0 0.00 0.00 0.00 34 999.2
20260901193018 79 360 9.0 14.0 0.00 0.00 0.00 35 999.3
20260901192517 79 86 8.0 16.0 0.00 0.00 0.00 35 999.4
20260901192017 79 360 9.0 16.0 0.00 0.00 0.00 35 999.5
20260901191516 79 85 9.0 16.0 0.00 0.00 0.00 35 999.5
20260901191016 79 360 10.0 13.0 0.00 0.00 0.00 35 999.5
20260901190517 79 360 7.0 12.0 0.00 0.00 0.00 36 999.6
20260901190017 79 82 7.0 14.0 0.00 0.00 0.00 36 999.6
20260901185517 79 103 9.0 13.0 0.00 0.00 0.00 36 999.7
20260901185017 78 360 7.0 13.0 0.00 0.00 0.00 37 999.8
20260901184516 78 78 5.0 14.0 0.00 0.00 0.00 37 999.8
20260901184015 78 360 10.0 18.0 0.00 0.00 0.00 37 999.9
20260901183015 77 360 8.0 14.0 0.00 0.00 0.00 38 1000.1
20260901182515 77 80 9.0 13.0 0.00 0.00 0.00 37 1000.2
20260901182015 77 360 8.0 15.0 0.00 0.00 0.00 38 1000.2
20260901181515 77 120 9.0 15.0 0.00 0.00 0.00 38 1000.4
20260901181017 77 114 9.0 14.0 0.00 0.00 0.00 39 1000.5
20260901180515 77 111 8.0 14.0 0.00 0.00 0.00 40 1000.5
20260901180015 76 125 9.0 14.0 0.00 0.00 0.00 40 1000.5
20260901175513 76 107 9.0 13.0 0.00 0.00 0.00 40 1000.6
20260901175014 76 360 10.0 13.0 0.00 0.00 0.00 41 1000.7
20260901174518 76 360 9.0 13.0 0.00 0.00 0.00 42 1000.7
20260901174018 76 360 8.0 14.0 0.00 0.00 0.00 42 1000.8
20260901173013 76 360 8.0 12.0 0.00 0.00 0.00 43 1000.9
20260901172519 75 136 7.0 12.0 0.00 0.00 0.00 43 1000.9
20260901172013 75 109 7.0 11.0 0.00 0.00 0.00 42 1000.9
20260901171512 75 360 6.0 11.0 0.00 0.00 0.00 42 1000.9
20260901171012 75 360 6.0 11.0 0.00 0.00 0.00 43 1000.9
20260901170513 75 360 7.0 11.0 0.00 0.00 0.00 44 1000.9
20260901170012 75 360 6.0 10.0 0.00 0.00 0.00 43 1001.0
20260901165512 74 94 4.0 9.0 0.00 0.00 0.00 43 1000.9
20260901165012 74 80 6.0 10.0 0.00 0.00 0.00 44 1000.9
20260901164512 73 84 5.0 8.0 0.00 0.00 0.00 45 1000.8
20260901164011 73 360 6.0 11.0 0.00 0.00 0.00 46 1000.8
20260901163031 72 85 5.0 11.0 0.00 0.00 0.00 46 1000.8
20260901162515 72 360 6.0 9.0 0.00 0.00 0.00 46 1000.7
20260901162015 72 360 6.0 10.0 0.00 0.00 0.00 45 1000.7
20260901161519 71 95 5.0 10.0 0.00 0.00 0.00 46 1000.9
20260901161014 71 360 7.0 11.0 0.00 0.00 0.00 47 1000.9
20260901160513 71 87 7.0 11.0 0.00 0.00 0.00 47 1001.0
20260901160013 70 360 7.0 10.0 0.00 0.00 0.00 48 1000.8
20260901155513 70 360 7.0 10.0 0.00 0.00 0.00 48 1000.9